Погода в Череповеце

Хотите узнать прогноз погоды в Череповеце? Тогда Вам сюда: Погода в Череповеце

Поиск расширенной информации на нашем сайте:

Полезная информация:

Новости сайта



14.11.2019
Обновлён Долгосрочный прогноз погоды по России и другим странам хСССР на ноябрь-декабрь 2019 года.
Опубликованы прогностические карты: Предварительный прогноз на декабрь 2019 года, Предварительный прогноз на январь 2020 года, Предварительная схема синоптических процессов на декабрь 2019 г..

11.11.2019
Обновлены Долгосрочный прогноз погоды по России и другим странам хСССР на ноябрь-декабрь 2019 года и Предварительный прогноз на зиму 2019/2020 годов

04.11.2019
Опубликован Долгосрочный прогноз погоды по России и другим странам хСССР на ноябрь 2019 года
Сравнение прогнозируемой аномалии приземной температуры воздуха на ноябрь 2019 года по разным моделям
Предварительный прогноз на зиму 2019/2020 года




Погода в Череповеце - сегодня

Время (UTC), дата Ветер
(°,м/с) 
Видим.   Явления Облачность Т
(°С)
Тd
(°С)
f(%) Тe
(°С)
Pmin
(гПа)
dP
(гПа)
Po
(мм)
O2
(г/м3)
Тmin Tmax R s Состояние
почвы
00 18.11.19 210 (ЮЗ) 1000 м  слаб. морось{туман}  10/10 30 м 
[St]
+5.3 +5.1 99 +5  1025.4  0.2  758  299           
03 18.11.19 250 (З) 1000 м  слаб. морось{туман}  10/10 30 м 
[St]
+5.8 +5.6 99 +7  1024.9  -0.5  758  298  +3.3    0.5    влажная 
06 18.11.19 260 (З) 8000 м  дымка{морось, туман}  10/10 60 м 
[St]
+5.9 +5.7 99 +6  1025.8  0.9  758  298           
09 18.11.19 280 (З) 9000 м  дымка  10/10 150 м 
[St]
+6 +5.8 99 +6  1027.1  1.3  759  298           
12 18.11.19 310 (СЗ) 10 км    9/9 180 м 
[Sc]
+5.6 +5.1 97 +6  1028  0.9  760  299           
15 18.11.19 тихо ()   1900 м  местами туман поземный  10/8 300 м средняя 
[St|Ac trans]
+3.2 +3 99 +3  1029.3  1.1  761  303    +6.1  0.0     
18 18.11.19 тихо ()   2100 м  дымка  10/8 210 м средняя 
[St|Ac trans]
+3.3 +3.1 99 +3  1030.3  1.1  762  303           
21 18.11.19 090 (В) 4100 м  дымка  10/8 120 м средняя 
[St|Ac trans]
+4 +3.8 99 +5  1031.2  0.9  762  302           
00 19.11.19 тихо ()   2500 м  дымка  10/8 900 м средняя 
[Sc|Ac trans]
+3.4 +3.2 99 +3  1032.3  763  303           
03 19.11.19 070 (В) 3600 м  дымка  10/10 150 м 
[Sc]
+3.2 +3 99 +4  1032.9  0.5  764  304  +3.2        влажная 
06 19.11.19 тихо ()   3900 м  дымка  10/10 30 м 
[St]
+3.8 +3.6 99 +4  1033.4  0.6  764  303           
09 19.11.19 080 (В) 7000 м  слаб. дождь  10/8 150 м средняя 
[Frnb|As op]
+4.2 +4 99 +3  1034.5  1.1  765  303           
12 19.11.19 080 (В) 10 км  {дождь}  10/10 210 м 
[Sc]
+3.7 +3 95 +2  1035  0.5  765  304           
15 19.11.19 080 (В) 10 км  слаб. дождь  10/10 210 м 
[Sc]
+2.7 +1.9 94 +1  1035.9  0.8  766  305    +4.3  0.0     
18 19.11.19 090 (В) 10 км  слаб. дождь  10/10 210 м 
[Sc]
+2.4 +1.6 94 1036.9  767  306           
21 19.11.19 100 (В) 10 км  слаб. дождь  10/10 270 м 
[Sc]
+2.3 +1.3 93 1038.3  1.2  767  306           
00 20.11.19 120 (ЮВ) 10 км  {дождь}  10/10 210 м 
[Sc]
+2.1 +1 92 +1  1039.5  1.2  768  307           
03 20.11.19 120 (ЮВ) 10 км    10/10 200 м 
[Sc]
+1 -0.1 92 -1  1040.7  1.1  769  309  +1    0.0    влажная 
06 20.11.19 110 (В) 10 км    10/10 150 м 
[Sc]
-0.1 -1 94 -3  1042.1  1.4  770  311  -0.1         
09 20.11.19 130 (ЮВ) 10 км    10/10 240 м 
[Sc]
+0 -1.8 88 -2  1043.5  1.3  771  311           
12 20.11.19 150 (ЮВ) 10 км    10/10 300 м 
[Sc]
-0.3 -2.7 84 -2  1044.2  0.7  772  312           
15 20.11.19 150 (ЮВ) 10 км    10/10 300 м 
[Sc]
-1.4 -3.7 84 -3  1045.1  0.8  772  313    +1       
18 20.11.19 150 (ЮВ) 10 км    9/6 1080 м средняя 
[Sc|Ac trans]
-2.3 -5.9 76 -4  1045.5  0.4  773  315           
21 20.11.19 140 (ЮВ) 10 км    8/8 1140 м 
[Sc]
-2.6 -6.3 76 -5  1045.9  0.3  773  315           
00 21.11.19 160 (Ю) 10 км    9/9 1170 м 
[Sc]
-2.8 -6.9 73 -5  1046.2  0.3  773  316           
Время (UTC), дата Ветер
(°,м/с) 
Видим.   Явления Облачность Т
(°С)
Тd
(°С)
f(%) Тe
(°С)
Pmin
(гПа)
dP
(гПа)
Po
(мм)
O2
(г/м3)
Тmin Tmax R s Состояние
почвы

Для получения пояснительной информации подведите курсор к названию столбца.

ПОГОДА в Череповеце - архив

Всё, что Вы хотите узнать о погоде в Череповеце - удобно и подробно!

Выберите нужную дату (начиная с 1 января 2019* года) и нажмите кнопку "Найти".
Будут отображены архивные сводки погоды по пункту Череповец, начиная с указанной даты.


Отображать данные в формате CSV (для использования в таблицах Excel)


Внимание! Наш архив погоды предназначен исключительно для личного некоммерческого использования в познавательных целях. Если Вам необходимы официальные справки о состоянии погоды (для производственных, юридических, коммерческих и т.п. целей), обращайтесь в органы Росгидромета.

*Примечание: данная дата относится к архиву по метеостанциям СССР (Россия, СНГ, Балтия).
Архив по метеостанциям Зарубежной Европы и Азии (кроме Китая) хранится 10 дней, по другим регионам земного шара (Китай, Африка, Америка, Австралия, Океания) - 1 день.

Череповец - район местоположения метеостанции


Название, широта, долгота, высота метеостанции:
Череповец 59.2°ш. 38°д. 114 м над ур. моря [Российская Федерация]

Дополнительная информация

В oтличие oт бoльшинства пoгoдных сайтoв мы публикуем пoдрoбную метеoинфoрмацию в детальнoм прoфессиoнальнoм фoрмате.

Характеристики температуры и влажнoсти вoздуха измеряются на высoте 2 м в тени вдали oт зданий и деревьев.
Скoрoсть ветра измеряется на высoте 10 м (на урoвне рoста челoвека скoрoсть ветра ниже в 1.5-2 раза). Если метеoстанция нахoдится в гoрoде или в лесу, тo скoрoсть ветра занижена на 2-4 м/с пo сравнению с oткрытым местoм. Скoрoсть ветра над акватoриями крупных рек и oзёр, а также на вершинах хoлмoв на 2-5 м/с выше, чем в oбычных услoвиях.
Атмoсфернoе давление в разных тoчках местнoсти мoжет значительнo oтличаться oт давления на метеoстанции, в зависимoсти oт услoвий рельефа (при пoдъёме на 10 м давление пoнижается примернo на 1 мм рт.ст.).